QPF
0.00 0.00 0.00 0.00 0.00 0.00 0.00 0.00 0.00 0.00 0.00 0.00 0.00 0.00 0.00 0.00 0.00 0.00 0.00 0.00 0.00 0.00 0.00 0.00 0.00 0.00 0.00 0.00 0.00 0.00 0.00 0.00 0.00 0.00 0.00 0.00 0.00 0.00 0.00 0.00 0.00 0.00 0.00 0.00 0.00
0.00 0.00 0.00 0.00 0.00 0.00 0.00 0.00 0.00 0.00 0.00 0.00 0.00 0.00 0.00 0.00 0.00 0.00 0.00 0.00 0.00 0.00 0.00 0.00 0.00 0.00 0.00 0.00 0.00 0.00 0.00 0.00 0.00 0.00 0.00 0.00 0.00 0.00 0.00 0.00 0.00 0.00 0.00 0.00 0.00
0.00 0.00 0.00 0.00 0.00 0.00 0.00 0.00 0.00 0.00 0.00 0.00 0.00 0.00 0.00 0.00 0.00 0.00 0.00 0.00 0.00 0.00 0.00 0.00 0.00 0.00 0.00 0.00 0.00 0.00 0.00 0.00 0.00 0.00 0.00 0.00 0.00 0.00 0.00 0.00 0.00 0.00 0.00 0.00 0.00
0.00 0.00 0.00 0.00 0.00 0.00 0.00 0.00 0.00 0.00 0.00 0.00 0.00 0.00 0.00 0.00 0.00 0.00 0.00 0.00 0.00 0.00 0.00 0.00 0.00 0.00 0.00 0.00 0.00 0.00 0.00 0.00 0.00 0.00 0.00 0.00 0.00 0.00 0.00 0.00 0.00 0.00 0.00 0.00 0.00
0.00 0.00 0.00 0.00 0.00 0.00 0.00 0.00 0.00 0.00 0.00 0.00 0.00 0.00 0.00 0.00 0.00 0.00 0.00 0.00 0.00 0.00 0.00 0.00 0.00 0.00 0.00 0.00 0.00 0.00 0.00 0.00 0.00 0.00 0.00 0.00 0.00 0.00 0.00 0.00 0.00 0.00 0.00 0.00 0.00
0.00 0.00 0.00 0.00 0.00 0.00 0.00 0.00 0.00 0.00 0.00 0.00 0.00 0.00 0.00 0.00 0.00 0.00 0.00 0.00 0.00 0.00 0.00 0.00 0.00 0.00 0.00 0.00 0.00 0.00 0.00 0.00 0.00 0.00 0.00 0.00 0.00 0.00 0.00 0.00 0.00 0.00 0.00 0.00 0.00
0.00 0.00 0.00 0.00 0.00 0.00 0.00 0.00 0.00 0.00 0.00 0.00 0.00 0.00 0.00 0.00 0.00 0.00 0.00 0.00 0.00 0.00 0.00 0.00 0.00 0.00 0.00 0.00 0.00 0.00 0.00 0.00 0.00 0.00 0.00 0.00 0.00 0.00 0.00 0.00 0.00 0.00 0.00 0.00 0.00
0.00 0.00 0.00 0.00 0.00 0.00 0.00 0.00 0.00 0.00 0.00 0.00 0.00 0.00 0.00 0.00 0.00 0.00 0.00 0.00 0.00 0.00 0.00 0.00 0.00 0.00 0.00 0.00 0.00 0.00 0.00 0.00 0.00 0.00 0.00 0.00 0.00 0.00 0.00 0.00 0.00 0.00 0.00 0.00 0.00
0.00 0.00 0.00 0.00 0.00 0.00 0.00 0.00 0.00 0.00 0.00 0.00 0.00 0.00 0.00 0.00 0.00 0.00 0.00 0.00 0.00 0.00 0.00 0.00 0.00 0.00 0.00 0.00 0.00 0.00 0.00 0.00 0.00 0.00 0.00 0.00 0.00 0.00 0.00 0.00 0.00 0.00 0.00 0.00 0.00
0.00 0.00 0.00 0.00 0.00 0.00 0.00 0.00 0.00 0.00 0.00 0.00 0.00 0.00 0.00 0.00 0.00 0.00 0.00 0.00 0.00 0.00 0.00 0.00 0.00 0.00 0.00 0.00 0.00 0.00 0.00 0.00 0.00 0.00 0.00 0.00 0.00 0.00 0.00 0.00 0.00 0.00 0.00 0.00 0.00
0.00 0.00 0.00 0.00 0.00 0.00 0.00 0.00 0.00 0.00 0.00 0.00 0.00 0.00 0.00 0.00 0.00 0.00 0.00 0.00 0.00 0.00 0.00 0.00 0.00 0.00 0.00 0.00 0.00 0.00 0.00 0.00 0.00 0.00 0.00 0.00 0.00 0.00 0.00 0.00 0.00 0.00 0.00 0.00 0.00
0.00 0.00 0.00 0.00 0.00 0.00 0.00 0.00 0.00 0.00 0.00 0.00 0.00 0.00 0.00 0.00 0.00 0.00 0.00 0.00 0.00 0.00 0.00 0.00 0.00 0.00 0.00 0.00 0.00 0.00 0.00 0.00 0.00 0.00 0.00 0.00 0.00 0.00 0.00 0.00 0.00 0.00 0.00 0.00 0.00
0.00 0.00 0.00 0.00 0.00 0.00 0.00 0.00 0.00 0.00 0.00 0.00 0.00 0.00 0.00 0.00 0.00 0.00 0.00 0.00 0.00 0.00 0.00 0.00 0.00 0.00 0.00 0.00 0.00 0.00 0.00 0.00 0.00 0.00 0.00 0.00 0.00 0.00 0.00 0.00 0.00 0.00 0.00 0.00 0.00
0.00 0.00 0.00 0.00 0.00 0.00 0.00 0.00 0.00 0.00 0.00 0.00 0.00 0.00 0.00 0.00 0.00 0.00 0.00 0.00 0.00 0.00 0.00 0.00 0.00 0.00 0.00 0.00 0.00 0.00 0.00 0.00 0.00 0.00 0.00 0.00 0.00 0.00 0.00 0.00 0.00 0.00 0.00 0.00 0.00
0.00 0.00 0.00 0.00 0.00 0.00 0.00 0.00 0.00 0.00 0.00 0.00 0.00 0.00 0.00 0.00 0.00 0.00 0.00 0.00 0.00 0.00 0.00 0.00 0.00 0.00 0.00 0.00 0.00 0.00 0.00 0.00 0.00 0.00 0.00 0.00 0.00 0.00 0.00 0.00 0.00 0.00 0.00 0.00 0.00
0.00 0.00 0.00 0.00 0.00 0.00 0.00 0.00 0.00 0.00 0.00 0.00 0.00 0.00 0.00 0.00 0.00 0.00 0.00 0.00 0.00 0.00 0.00 0.00 0.00 0.00 0.00 0.00 0.00 0.00 0.00 0.00 0.00 0.00 0.00 0.00 0.00 0.00 0.00 0.00 0.00 0.00 0.00 0.00 0.00
0.00 0.00 0.00 0.00 0.00 0.00 0.00 0.00 0.00 0.00 0.00 0.00 0.00 0.00 0.00 0.00 0.00 0.00 0.00 0.00 0.00 0.00 0.00 0.00 0.00 0.00 0.00 0.00 0.00 0.00 0.00 0.00 0.00 0.00 0.00 0.00 0.00 0.00 0.00 0.00 0.00 0.00 0.00 0.00 0.00
0.00 0.00 0.00 0.00 0.00 0.00 0.00 0.00 0.00 0.00 0.00 0.00 0.00 0.00 0.00 0.00 0.00 0.00 0.00 0.00 0.00 0.00 0.00 0.00 0.00 0.00 0.00 0.00 0.00 0.00 0.00 0.00 0.00 0.00 0.00 0.00 0.00 0.00 0.00 0.00 0.00 0.00 0.00 0.00 0.00
0.00 0.00 0.00 0.00 0.00 0.00 0.00 0.00 0.00 0.00 0.00 0.00 0.00 0.00 0.00 0.00 0.00 0.00 0.00 0.00 0.00 0.00 0.00 0.00 0.00 0.00 0.00 0.00 0.00 0.00 0.00 0.00 0.00 0.00 0.00 0.00 0.00 0.00 0.00 0.00 0.00 0.00 0.00 0.00 0.00
0.00 0.00 0.00 0.00 0.00 0.00 0.00 0.00 0.00 0.00 0.00 0.00 0.00 0.00 0.00 0.00 0.00 0.00 0.00 0.00 0.00 0.00 0.00 0.00 0.00 0.00 0.00 0.00 0.00 0.00 0.00 0.00 0.00 0.00 0.00 0.00 0.00 0.00 0.00 0.00 0.00 0.00 0.00 0.00 0.00
0.00 0.00 0.00 0.00 0.00 0.00 0.00 0.00 0.00 0.00 0.00 0.00 0.00 0.00 0.00 0.00 0.00 0.00 0.00 0.00 0.00 0.00 0.00 0.00 0.00 0.00 0.00 0.00 0.00 0.00 0.00 0.00 0.00 0.00 0.00 0.00 0.00 0.00 0.00 0.00 0.00 0.00 0.00 0.00 0.00
0.00 0.00 0.00 0.00 0.00 0.00 0.00 0.00 0.00 0.00 0.00 0.00 0.00 0.00 0.00 0.00 0.00 0.00 0.00 0.00 0.00 0.00 0.00 0.00 0.00 0.00 0.00 0.00 0.00 0.00 0.00 0.00 0.00 0.00 0.00 0.00 0.00 0.00 0.00 0.00 0.00 0.00 0.00 0.00 0.00
0.00 0.00 0.00 0.00 0.00 0.00 0.00 0.00 0.00 0.00 0.00 0.00 0.00 0.00 0.00 0.00 0.00 0.00 0.00 0.00 0.00 0.00 0.00 0.00 0.00 0.00 0.00 0.00 0.00 0.00 0.00 0.00 0.00 0.00 0.00 0.00 0.00 0.00 0.00 0.00 0.00 0.00 0.00 0.00 0.00
0.00 0.00 0.00 0.00 0.00 0.00 0.01 0.00 0.00 0.00 0.00 0.00 0.00 0.00 0.00 0.00 0.00 0.00 0.00 0.01 0.00 0.00 0.00 0.00 0.00 0.00 0.00 0.00 0.00 0.00 0.00 0.00 0.00 0.00 0.00 0.00 0.00 0.00 0.00 0.00 0.00 0.00 0.00 0.00 0.00
0.00 0.00 0.00 0.00 0.00 0.00 0.00 0.00 0.01 0.01 0.00 0.00 0.00 0.00 0.00 0.00 0.00 0.00 0.00 0.00 0.00 0.01 0.01 0.00 0.00 0.00 0.00 0.00 0.00 0.00 0.00 0.00 0.00 0.00 0.00 0.00 0.00 0.00 0.00 0.00 0.00 0.00 0.00 0.00 0.00
0.00 0.00 0.00 0.00 0.00 0.00 0.00 0.00 0.00 0.01 0.00 0.00 0.00 0.00 0.00 0.00 0.00 0.00 0.00 0.00 0.00 0.00 0.00 0.00 0.00 0.00 0.00 0.00 0.00 0.00 0.00 0.00 0.00 0.00 0.00 0.00 0.00 0.00 0.00 0.00 0.00 0.00 0.00 0.00 0.01
0.00 0.00 0.00 0.00 0.00 0.00 0.00 0.00 0.00 0.01 0.00 0.00 0.00 0.00 0.00 0.00 0.00 0.00 0.00 0.00 0.00 0.00 0.00 0.00 0.00 0.00 0.00 0.00 0.00 0.00 0.00 0.00 0.00 0.00 0.00 0.00 0.00 0.00 0.00 0.00 0.00 0.00 0.01 0.00 0.00
MSLP
1017.08 1016.92 1016.73 1016.50 1016.25 1016.03 1015.75 1015.46 1015.08 1014.74 1014.42 1014.02 1013.52 1012.94 1012.35 1011.85 1010.59 1009.93 1007.99 1007.48 1007.17 1007.14 1007.07 1006.05 1005.79 1005.44 1005.05 1004.47 1004.70 1004.54 1003.51 1003.93 1004.89 1005.03 1005.83 1006.55 1006.63 1007.41 1007.77 1007.99 1008.57 1009.37 1009.35 1010.00 1012.00
1017.12 1016.88 1016.61 1016.37 1016.13 1015.90 1015.67 1015.41 1015.03 1014.69 1014.40 1013.97 1013.40 1012.80 1012.20 1011.87 1010.03 1007.91 1007.40 1007.27 1007.39 1007.34 1006.24 1005.37 1004.72 1004.82 1003.98 1003.99 1004.20 1003.51 1003.42 1004.04 1004.67 1005.01 1005.45 1006.18 1006.61 1007.19 1007.55 1008.03 1008.87 1009.69 1010.23 1011.14 1011.88
1017.01 1016.78 1016.51 1016.21 1015.98 1015.78 1015.55 1015.26 1014.86 1014.51 1014.24 1013.82 1013.26 1012.62 1012.00 1011.61 1009.05 1006.86 1007.22 1007.29 1007.41 1007.25 1006.17 1005.57 1004.98 1004.31 1003.52 1003.60 1003.81 1003.96 1003.64 1004.22 1004.55 1005.02 1005.35 1005.93 1006.61 1007.11 1007.23 1007.35 1007.91 1009.27 1010.32 1011.10 1011.72
1016.85 1016.64 1016.41 1016.10 1015.86 1015.61 1015.40 1015.11 1014.78 1014.42 1014.10 1013.68 1013.10 1012.43 1011.70 1010.36 1007.57 1006.78 1007.28 1007.34 1007.33 1006.83 1005.90 1004.87 1004.09 1003.48 1003.04 1002.94 1003.61 1003.54 1004.03 1004.32 1004.54 1005.19 1005.31 1005.76 1006.32 1006.75 1007.17 1007.59 1007.74 1008.92 1010.05 1010.84 1011.35
1016.72 1016.48 1016.26 1015.98 1015.72 1015.44 1015.18 1014.94 1014.67 1014.35 1013.93 1013.52 1013.00 1012.36 1011.04 1008.85 1006.72 1006.93 1007.30 1007.14 1006.80 1006.26 1005.34 1004.59 1003.80 1003.43 1002.76 1003.11 1003.41 1003.52 1003.88 1004.18 1004.41 1004.79 1005.04 1005.62 1006.05 1006.48 1007.20 1007.80 1008.19 1009.15 1010.18 1010.69 1011.00
1016.60 1016.32 1016.07 1015.78 1015.53 1015.27 1014.99 1014.79 1014.57 1014.25 1013.85 1013.46 1012.91 1012.36 1010.60 1007.96 1006.59 1006.91 1006.95 1006.70 1006.22 1005.67 1005.12 1004.65 1004.29 1004.05 1003.38 1003.29 1003.23 1003.80 1003.88 1003.90 1003.99 1004.31 1004.79 1005.26 1005.88 1006.43 1007.58 1008.07 1008.58 1009.32 1009.94 1010.37 1010.73
1016.46 1016.15 1015.88 1015.60 1015.30 1015.09 1014.84 1014.62 1014.41 1014.09 1013.75 1013.34 1012.94 1012.06 1009.68 1006.97 1006.74 1006.84 1006.74 1006.18 1006.11 1005.76 1005.03 1005.03 1004.79 1004.00 1003.63 1003.19 1003.84 1003.70 1003.36 1003.57 1003.89 1004.11 1004.21 1004.85 1005.68 1005.99 1007.18 1007.86 1008.38 1008.86 1009.54 1010.02 1010.55
1016.31 1015.94 1015.68 1015.43 1015.13 1014.88 1014.70 1014.50 1014.21 1013.85 1013.52 1013.21 1012.89 1011.46 1008.12 1007.02 1007.03 1006.78 1006.34 1005.88 1005.92 1005.76 1005.54 1005.31 1004.95 1004.20 1003.62 1003.83 1003.58 1003.36 1003.34 1003.02 1003.96 1004.14 1004.29 1004.57 1004.72 1006.06 1007.08 1007.40 1007.88 1008.40 1009.15 1009.88 1010.43
1016.19 1015.79 1015.48 1015.27 1014.98 1014.71 1014.46 1014.18 1013.81 1013.44 1013.18 1012.94 1012.16 1010.42 1006.92 1007.23 1006.65 1005.84 1005.86 1005.30 1005.32 1005.45 1005.55 1005.56 1004.69 1003.96 1003.67 1003.01 1002.86 1003.13 1002.56 1003.31 1003.62 1004.19 1004.14 1004.37 1004.11 1005.84 1006.75 1006.92 1007.30 1007.96 1008.61 1009.36 1010.00
1016.00 1015.64 1015.32 1015.12 1014.86 1014.55 1014.15 1013.82 1013.34 1013.10 1012.77 1012.07 1011.28 1009.90 1006.82 1005.79 1005.75 1005.72 1005.77 1005.51 1005.13 1005.12 1005.07 1004.85 1004.02 1003.27 1003.05 1002.52 1001.94 1003.08 1003.09 1003.49 1003.56 1004.01 1004.16 1003.90 1004.16 1005.46 1006.36 1006.54 1006.85 1007.43 1008.02 1008.71 1009.28
1015.73 1015.44 1015.17 1015.02 1014.77 1014.47 1013.33 1012.77 1012.62 1011.56 1010.62 1008.38 1007.86 1006.98 1006.08 1005.93 1006.06 1005.46 1005.42 1005.34 1005.14 1004.89 1004.29 1004.49 1003.72 1002.81 1002.63 1003.45 1003.74 1003.72 1003.63 1003.55 1003.63 1004.03 1004.01 1003.55 1003.58 1004.01 1005.62 1006.09 1006.30 1006.91 1007.42 1008.01 1008.40
1015.48 1015.18 1014.96 1014.85 1014.60 1014.40 1013.90 1010.65 1009.69 1009.73 1008.02 1007.56 1007.43 1007.02 1006.29 1006.06 1005.12 1005.04 1005.32 1004.97 1004.80 1004.19 1004.54 1004.45 1003.59 1003.12 1004.16 1004.15 1004.00 1003.71 1003.49 1003.09 1003.47 1003.92 1003.91 1003.40 1003.37 1003.76 1004.49 1005.30 1005.69 1006.32 1006.86 1007.31 1007.92
1015.25 1014.96 1014.77 1014.64 1014.41 1014.01 1011.67 1009.84 1009.71 1009.39 1007.44 1006.71 1006.34 1005.76 1005.22 1005.53 1004.28 1004.52 1004.85 1004.54 1004.38 1004.18 1004.12 1003.61 1003.21 1004.04 1004.23 1003.85 1003.69 1003.24 1003.05 1002.89 1003.14 1003.34 1003.45 1003.40 1002.92 1003.72 1004.58 1004.90 1005.49 1005.94 1006.31 1006.68 1007.36
1014.99 1014.68 1014.59 1014.46 1014.53 1011.74 1010.36 1009.82 1009.75 1009.62 1006.43 1005.73 1005.24 1004.81 1005.19 1004.65 1004.28 1004.33 1004.33 1004.37 1004.38 1003.93 1004.11 1003.72 1003.64 1004.08 1003.80 1003.34 1003.33 1002.26 1003.22 1003.48 1003.40 1002.92 1002.13 1002.78 1001.79 1003.26 1003.95 1004.54 1005.27 1005.62 1006.12 1006.38 1006.95
1014.72 1014.48 1014.45 1014.67 1012.38 1010.75 1009.99 1009.79 1009.44 1009.06 1005.05 1004.51 1004.36 1004.81 1004.31 1003.87 1003.84 1004.56 1004.61 1004.38 1003.80 1004.07 1004.33 1003.33 1003.76 1003.80 1003.21 1002.83 1003.24 1002.94 1003.47 1003.50 1003.31 1002.77 1002.44 1002.28 1002.10 1002.97 1003.74 1004.54 1005.37 1005.72 1005.81 1005.80 1006.25
1014.41 1014.28 1014.34 1013.73 1012.29 1010.33 1010.21 1009.81 1009.07 1006.90 1003.66 1003.68 1003.59 1003.79 1003.60 1003.29 1003.35 1003.98 1004.38 1004.46 1004.20 1004.07 1004.03 1003.49 1004.03 1003.68 1002.66 1003.26 1003.47 1003.62 1003.33 1003.24 1003.13 1002.52 1001.75 1001.64 1002.36 1002.07 1003.48 1005.01 1005.61 1006.00 1006.13 1005.99 1005.80
1013.93 1013.80 1013.96 1012.21 1010.02 1010.34 1010.05 1008.81 1006.57 1003.91 1003.08 1002.99 1002.64 1002.86 1002.59 1002.80 1003.02 1003.33 1003.68 1003.79 1003.21 1003.37 1003.11 1003.21 1003.19 1003.12 1003.28 1002.88 1003.27 1003.26 1002.38 1001.56 1001.51 1001.39 1000.96 1002.26 1002.68 1003.20 1004.56 1005.55 1006.14 1006.39 1006.18 1005.91 1005.82
1013.56 1013.26 1012.63 1011.45 1010.81 1010.50 1009.40 1007.20 1004.48 1002.61 1001.84 1001.76 1001.85 1002.19 1002.09 1002.35 1002.45 1002.77 1002.86 1002.62 1003.14 1002.75 1001.56 1002.04 1002.17 1002.44 1002.69 1002.49 1001.91 1002.09 1001.67 1000.87 1000.66 1000.44 1000.82 1002.83 1002.30 1003.32 1005.00 1005.77 1006.34 1006.64 1006.76 1006.70 1006.42
1013.53 1012.09 1011.00 1010.32 1010.77 1010.51 1008.10 1005.31 1002.91 1002.07 1001.73 1001.40 1001.61 1001.52 1001.55 1002.10 1002.08 1002.38 1002.26 1001.96 1002.10 1002.70 1001.80 1001.63 1001.57 1002.41 1002.69 1002.44 1002.41 1002.01 1002.04 1001.39 1000.98 1001.59 1001.51 1001.53 1002.80 1003.97 1004.95 1005.69 1006.37 1006.92 1007.32 1007.55 1007.81
1011.73 1010.16 1009.57 1010.07 1010.33 1009.47 1006.78 1004.30 1003.40 1003.09 1002.40 1001.35 1000.65 1000.76 1000.91 1001.48 1001.77 1001.66 1001.86 1001.96 1002.11 1002.44 1002.41 1002.06 1001.61 1002.19 1002.81 1002.87 1002.92 1002.27 1001.98 1001.62 1001.29 1000.96 1000.88 1001.61 1002.38 1001.98 1004.35 1005.57 1006.51 1007.09 1007.69 1008.19 1008.59
1011.18 1008.64 1009.61 1009.90 1009.82 1007.83 1005.16 1003.95 1003.64 1002.87 1002.78 1001.49 1000.45 1000.59 1000.48 1000.88 1001.08 1001.27 1001.62 1002.44 1002.52 1002.71 1002.94 1002.22 1001.83 1002.44 1002.74 1002.42 1001.94 1002.51 1001.83 1001.77 1001.30 1001.48 1000.78 1001.24 1001.67 1002.79 1004.19 1005.80 1006.67 1007.51 1007.99 1008.40 1008.76
1009.75 1007.79 1009.39 1009.65 1008.01 1006.14 1004.61 1004.08 1004.19 1002.72 1002.43 1001.85 1001.27 1000.15 1000.41 1000.82 1001.05 1001.02 1001.47 1002.33 1003.44 1003.19 1003.07 1002.89 1001.88 1001.65 1002.21 1003.29 1003.41 1002.87 1002.56 1002.24 1001.44 1001.42 1001.77 1002.04 1002.41 1004.00 1004.68 1006.19 1007.19 1008.09 1008.58 1009.03 1009.45
1008.75 1008.18 1008.90 1008.68 1006.05 1005.08 1004.60 1004.10 1003.73 1002.76 1002.14 1001.72 1001.00 1000.76 1000.91 1000.89 1001.33 1001.49 1002.28 1003.59 1003.70 1003.48 1003.31 1003.15 1002.30 1001.90 1002.53 1003.26 1003.48 1002.93 1003.31 1003.45 1003.05 1002.59 1002.17 1002.32 1002.53 1004.52 1005.25 1006.70 1007.70 1008.47 1009.29 1009.80 1010.17
1008.89 1007.09 1007.65 1007.32 1006.24 1004.86 1004.34 1003.61 1003.24 1003.06 1002.58 1002.15 1001.42 1001.17 1001.16 1001.28 1001.48 1001.82 1002.40 1003.56 1004.08 1004.12 1004.55 1004.20 1002.49 1002.11 1002.32 1003.39 1002.90 1003.22 1003.66 1003.88 1003.53 1002.86 1002.28 1002.53 1002.77 1004.65 1005.70 1006.56 1007.78 1008.76 1009.51 1010.17 1010.73
1008.71 1006.59 1006.49 1005.74 1005.34 1004.83 1004.71 1004.05 1003.26 1002.61 1002.50 1002.16 1001.66 1001.01 1000.87 1001.13 1001.35 1001.60 1002.25 1003.32 1004.05 1004.74 1004.51 1003.79 1002.95 1003.49 1003.70 1003.87 1004.11 1004.03 1003.98 1003.99 1003.99 1003.79 1003.52 1003.19 1003.42 1003.87 1005.35 1006.51 1007.63 1008.82 1009.74 1010.34 1010.74
1008.99 1007.60 1007.00 1005.93 1005.66 1005.01 1004.47 1003.38 1003.16 1002.82 1002.60 1001.68 1001.28 1001.54 1001.32 1001.35 1001.57 1001.57 1002.02 1002.54 1003.02 1004.14 1003.90 1003.57 1003.76 1004.03 1003.93 1004.43 1004.71 1004.56 1004.32 1004.44 1004.49 1004.55 1004.55 1004.59 1004.35 1004.87 1005.70 1006.75 1007.76 1008.90 1009.75 1010.17 1010.77
1010.30 1009.32 1008.12 1006.46 1005.28 1004.70 1003.71 1003.67 1003.39 1003.62 1003.29 1002.75 1002.10 1001.80 1002.34 1003.01 1002.79 1002.51 1002.62 1002.87 1003.24 1003.43 1003.63 1003.71 1003.73 1004.34 1003.86 1004.65 1004.95 1004.67 1004.05 1004.56 1004.81 1005.15 1005.26 1004.88 1005.23 1005.95 1006.58 1007.29 1008.25 1009.04 1009.77 1010.33 1010.84
Thickness
5738 5741 5744 5748 5751 5754 5757 5759 5762 5765 5768 5771 5776 5782 5788 5795 5809 5819 5825 5838 5845 5850 5853 5858 5857 5857 5860 5854 5855 5855 5826 5807 5803 5807 5806 5820 5812 5820 5824 5812 5812 5807 5808 5811 5799
5736 5739 5743 5746 5750 5753 5755 5758 5762 5765 5768 5771 5776 5782 5788 5794 5812 5823 5838 5843 5845 5848 5852 5849 5847 5853 5849 5849 5848 5844 5824 5814 5828 5826 5817 5820 5817 5815 5811 5807 5801 5799 5807 5804 5800
5735 5738 5742 5746 5749 5752 5755 5758 5762 5765 5768 5772 5776 5782 5789 5794 5808 5823 5839 5843 5845 5848 5855 5856 5855 5852 5843 5852 5844 5838 5820 5831 5831 5833 5832 5822 5816 5822 5813 5805 5812 5798 5798 5800 5797
5734 5737 5740 5744 5748 5752 5755 5758 5762 5765 5768 5772 5777 5783 5790 5803 5785 5832 5838 5842 5845 5851 5853 5854 5854 5844 5840 5836 5847 5828 5837 5835 5835 5834 5830 5821 5826 5816 5817 5813 5826 5818 5810 5803 5797
5733 5736 5739 5743 5747 5751 5755 5758 5761 5764 5768 5771 5776 5782 5796 5798 5808 5835 5836 5841 5848 5851 5847 5846 5844 5844 5836 5840 5842 5832 5836 5840 5842 5840 5837 5834 5822 5819 5816 5822 5826 5817 5807 5801 5801
5731 5735 5738 5742 5746 5750 5754 5757 5760 5764 5767 5770 5775 5780 5790 5781 5831 5833 5837 5841 5845 5847 5847 5850 5843 5849 5842 5839 5836 5839 5840 5841 5845 5841 5839 5827 5824 5825 5816 5824 5817 5810 5805 5805 5803
5730 5734 5738 5741 5746 5749 5753 5757 5760 5764 5767 5770 5773 5780 5786 5797 5828 5832 5836 5840 5847 5846 5841 5851 5853 5846 5847 5836 5846 5843 5832 5841 5840 5841 5837 5840 5813 5815 5825 5824 5814 5811 5808 5807 5805
5728 5733 5737 5740 5744 5748 5752 5755 5760 5764 5767 5770 5772 5780 5784 5820 5824 5828 5837 5838 5848 5851 5848 5853 5856 5848 5844 5849 5842 5831 5836 5817 5834 5839 5842 5836 5808 5822 5829 5825 5816 5815 5811 5806 5805
5725 5731 5736 5740 5743 5748 5752 5756 5761 5765 5768 5770 5777 5781 5789 5818 5813 5833 5838 5830 5842 5846 5847 5850 5851 5839 5843 5833 5827 5830 5818 5813 5822 5840 5837 5831 5824 5826 5832 5829 5822 5819 5815 5810 5808
5723 5728 5734 5738 5742 5747 5753 5758 5763 5766 5770 5775 5779 5774 5802 5803 5820 5828 5838 5837 5831 5833 5830 5834 5836 5829 5834 5834 5813 5804 5812 5816 5813 5831 5833 5830 5828 5829 5829 5829 5826 5824 5822 5816 5813
5721 5726 5731 5736 5741 5746 5756 5767 5770 5771 5777 5793 5795 5796 5805 5817 5824 5822 5833 5827 5829 5823 5808 5823 5812 5813 5830 5824 5823 5821 5815 5811 5825 5835 5827 5831 5835 5841 5833 5831 5828 5825 5824 5821 5821
5719 5724 5729 5734 5739 5744 5751 5775 5783 5784 5784 5798 5796 5797 5811 5817 5805 5818 5833 5811 5810 5802 5813 5808 5800 5831 5823 5822 5819 5820 5814 5821 5830 5834 5829 5833 5831 5843 5843 5837 5836 5830 5827 5825 5825
5716 5721 5726 5732 5737 5745 5766 5779 5786 5789 5785 5793 5803 5804 5813 5816 5813 5813 5826 5820 5808 5802 5806 5802 5822 5823 5816 5818 5814 5823 5819 5822 5819 5833 5839 5831 5829 5831 5837 5844 5841 5840 5839 5836 5828
5714 5719 5723 5729 5737 5760 5767 5779 5783 5786 5784 5785 5796 5809 5813 5820 5806 5832 5836 5822 5809 5802 5806 5808 5824 5813 5815 5817 5825 5826 5832 5823 5818 5820 5815 5841 5813 5828 5836 5835 5836 5838 5837 5836 5833
5712 5716 5719 5724 5748 5758 5769 5776 5784 5781 5759 5797 5800 5826 5822 5812 5817 5812 5836 5823 5806 5804 5807 5806 5808 5807 5811 5824 5830 5820 5831 5822 5822 5820 5823 5828 5821 5824 5840 5825 5827 5834 5838 5843 5843
5709 5713 5716 5726 5741 5760 5765 5774 5778 5764 5757 5785 5806 5801 5803 5815 5816 5820 5816 5828 5827 5809 5812 5813 5826 5822 5831 5829 5828 5829 5824 5823 5824 5824 5804 5830 5821 5828 5828 5822 5827 5833 5834 5840 5847
5709 5713 5716 5731 5753 5756 5763 5770 5760 5763 5801 5783 5793 5805 5808 5802 5806 5810 5802 5798 5798 5782 5788 5807 5812 5829 5830 5817 5826 5822 5821 5802 5797 5800 5807 5827 5816 5817 5829 5829 5828 5826 5834 5842 5848
5708 5714 5723 5734 5743 5751 5760 5761 5746 5786 5793 5813 5808 5807 5797 5808 5808 5807 5803 5799 5810 5809 5812 5793 5786 5818 5831 5822 5824 5823 5828 5813 5780 5797 5813 5817 5808 5822 5833 5836 5835 5836 5836 5838 5841
5705 5720 5729 5740 5740 5747 5757 5749 5770 5787 5802 5801 5804 5794 5797 5805 5808 5804 5804 5806 5815 5814 5799 5798 5802 5827 5826 5832 5831 5818 5805 5841 5821 5820 5806 5823 5823 5831 5833 5830 5831 5828 5828 5827 5828
5720 5731 5736 5737 5741 5749 5755 5747 5772 5789 5798 5809 5793 5807 5790 5797 5797 5803 5802 5818 5812 5822 5828 5813 5796 5821 5818 5828 5826 5824 5839 5808 5821 5785 5784 5803 5806 5822 5820 5819 5822 5821 5820 5820 5821
5719 5733 5732 5736 5742 5749 5748 5763 5773 5796 5797 5799 5806 5800 5807 5801 5807 5803 5805 5811 5820 5817 5822 5824 5816 5804 5818 5812 5816 5813 5816 5822 5827 5819 5800 5792 5810 5839 5827 5820 5816 5816 5818 5818 5818
5729 5728 5732 5736 5736 5754 5756 5769 5761 5791 5803 5804 5811 5819 5810 5809 5803 5809 5806 5810 5816 5821 5803 5822 5824 5803 5807 5815 5820 5820 5812 5819 5806 5801 5814 5807 5809 5828 5829 5819 5814 5808 5810 5811 5810
5729 5727 5734 5737 5736 5749 5763 5768 5778 5787 5796 5800 5806 5816 5819 5808 5793 5808 5808 5810 5816 5817 5811 5819 5813 5791 5791 5803 5810 5806 5806 5805 5809 5813 5797 5792 5811 5822 5822 5809 5806 5800 5798 5797 5797
5727 5723 5729 5739 5750 5753 5755 5766 5771 5792 5793 5802 5806 5815 5810 5803 5813 5800 5803 5805 5809 5810 5789 5802 5816 5803 5777 5776 5804 5790 5793 5797 5798 5787 5799 5799 5811 5800 5801 5800 5797 5794 5792 5788 5784
5729 5734 5738 5731 5743 5753 5756 5764 5769 5778 5797 5804 5800 5811 5810 5796 5802 5800 5807 5801 5805 5786 5800 5808 5791 5792 5791 5792 5789 5787 5787 5789 5781 5789 5777 5796 5793 5806 5802 5796 5792 5788 5782 5777 5774
5721 5728 5737 5741 5745 5749 5743 5768 5770 5783 5787 5797 5801 5805 5813 5802 5803 5796 5804 5802 5798 5798 5799 5808 5777 5783 5776 5783 5779 5772 5784 5781 5779 5777 5777 5780 5781 5801 5802 5796 5784 5776 5771 5768 5764
5716 5724 5726 5722 5746 5749 5762 5766 5772 5777 5786 5795 5802 5805 5796 5794 5806 5812 5814 5811 5804 5795 5790 5789 5781 5767 5761 5769 5766 5756 5778 5775 5773 5774 5771 5763 5776 5785 5777 5775 5769 5766 5762 5756 5752